Regional Weather Roundup
Issued by NWS

Home | Current Version | Previous Version | Text Only | Print | Product List | Glossary Off
Versions: 1 2 3 4 5 6 7 8 9 10 11 12 13 14 15 16 17 18 19 20 21 22 23 24 25 26 27 28 29 30 31 32 33 34 35 36 37 38 39 40 41 42 43 44 45 46 47 48 49 50

000
ASUS45 KCYS 011010
RWRWY

WYOMING REGIONAL WEATHER ROUNDUP
NATIONAL WEATHER SERVICE CHEYENNE WY
300 AM MST SUN FEB 01 2015

NOTE:  "FAIR" INDICATES FEW OR NO CLOUDS BELOW 12,000 FEET
WITH NO SIGNIFICANT WEATHER AND/OR OBSTRUCTIONS TO VISIBILITY.

WYZ001-011100-
YELLOWSTONE NATIONAL PARK

CITY           SKY/WX    TMP DP  RH WIND       PRES   REMARKS
LK YELLOWSTONE   N/A      3  -2  79 CALM      30.12R
W YELLOWSTONE  NOT AVBL

$$
WYZ002>013-054>058-071-098>099-011100-
NORTHERN WYOMING

CITY           SKY/WX    TMP DP  RH WIND       PRES   REMARKS
JACKSON        FAIR       5   3  92 N6        30.14S WCI  -6
CODY           CLOUDY    12  10  92 N12       30.20R WCI  -2
GREYBULL       CLOUDY    16   8  71 N15       30.24R WCI   1
WORLAND        CLOUDY    17  10  74 NE7       30.22R WCI   8
SHERIDAN       CLOUDY    11   4  73 NW14      30.29R WCI  -5
BUFFALO        CLOUDY     8   4  83 N26G36    30.17F WCI -14
GILLETTE       CLOUDY     8   4  83 N15       30.21R WCI  -9
HULETT           N/A    N/A N/A N/A MISG        N/A
NEWCASTLE      CLOUDY    12   7  79 NW20G25   30.15R WCI  -6

$$
WYZ014>020-022>026-101>103-011100-
CENTRAL WYOMING

CITY           SKY/WX    TMP DP  RH WIND       PRES   REMARKS
BIG PINEY      FAIR      14   6  70 NE6       30.08R WCI   5
PINEDALE       FAIR       7   1  78 W7        30.08R WCI  -5
DUBOIS         FAIR      19  10  68 W20G28    30.04S WCI   4
LANDER         CLOUDY    22  20  92 N6        30.10R WCI  14
RIVERTON       CLOUDY    22  15  75 E8        30.12R WCI  12
CASPER         CLOUDY    15   9  76 N8        30.14R WCI   4
DOUGLAS        CLOUDY    17   9  70 N17G23    30.14R WCI   1

$$
WYZ021-027>030-104>119-011100-
SOUTHERN WYOMING

CITY           SKY/WX    TMP DP  RH WIND       PRES   REMARKS
EVANSTON       FAIR      22  18  85 SW8       30.12S WCI  12
FORT BRIDGER   FAIR      26  16  65 SW12      30.14S WCI  16
ROCK SPRINGS   FAIR      21  13  71 W13       30.08R WCI   9
DIXON          FAIR      19  17  91 NE5       30.10S WCI  12
RAWLINS        CLOUDY    20  14  77 NW9       30.06R WCI   9
SARATOGA       FAIR      19  18  93 W8        30.05R WCI   9
LARAMIE        CLOUDY    17  14  88 N10       29.98R WCI   5
CHEYENNE       MOCLDY    16  12  84 N15G25    30.00R WCI   1
TORRINGTON     CLOUDY    21  11  65 N18G28    30.12R WCI   6
PINE BLUFFS    PTSUNNY   21  18  86 N23G31    30.03S WCI   5

$$


USA.gov is the U.S. government's official web portal to all federal, state and local government web resources and services.